Voltar ao catálogo

STARLINK-31038

AtivoComunicaçõesVLEO
NORAD 58605·PAYLOAD·🇺🇸 United States

Lançado Dec 19, 2023 de Cape Canaveral Space Force Station

Loading…

Próximas Passagens (próximas 24 horas)

TLE

AtualizadoSource: CelesTrak SupGP

Época: Sep 15, 2026, 02:39 UTC

1 58605C 23200S   26258.11090278  .00120230  00000+0  21721-2 0  2582
2 58605  42.9945 166.0621 0019730 196.9632  58.3128 15.48553869    19

Acompanhe STARLINK-31038 em tempo real com AllMySat

Download on the App Store